Theta_e
334 334 335 335 335 335 335 335 336 337 351 356 357 357 356 356 355 353 352 351 350 349 347 346 344 343 343 344 345 348 351 350 348 350 348 354 359 357 361 364 365 367 366 365
339 337 335 335 334 333 334 336 335 336 350 353 353 353 353 352 350 348 346 345 344 343 341 340 339 339 339 340 340 339 339 338 338 334 323 322 322 321 321 323 324 326 334 351
341 338 338 338 336 335 335 335 336 337 339 353 354 352 351 349 348 346 345 343 341 340 338 338 338 338 338 336 336 337 340 338 330 330 330 328 328 328 326 325 324 324 323 321
341 339 341 339 341 339 338 337 338 340 349 351 351 350 349 347 346 345 342 339 338 337 337 336 332 332 335 335 334 336 338 336 334 332 337 335 333 335 330 328 327 326 325 325
341 340 339 337 342 339 339 338 340 342 346 348 349 346 345 345 343 341 339 338 337 336 336 334 332 330 330 331 330 330 332 330 328 324 322 322 323 322 321 321 323 323 322 325
338 339 339 337 342 340 340 342 343 342 346 348 344 348 344 340 339 338 338 337 335 334 333 333 331 330 329 329 328 328 327 322 320 317 315 315 315 314 314 314 316 328 330 322
336 336 335 339 338 337 338 344 342 342 345 344 344 344 341 338 338 336 334 332 330 330 329 329 328 327 326 326 326 326 325 324 320 318 314 313 313 313 316 318 316 312 312 312
335 336 336 335 335 338 344 342 342 343 343 340 342 340 338 336 334 331 330 328 327 326 325 324 324 324 324 325 325 326 326 323 322 319 318 319 316 315 316 319 321 323 323 327
335 336 334 332 336 337 338 341 341 341 340 341 339 337 334 332 330 329 327 326 324 323 323 324 324 324 325 325 326 325 325 323 323 323 322 322 322 321 326 327 328 328 327 327
330 330 333 331 332 334 336 339 339 340 339 337 335 332 330 328 327 325 324 323 322 322 323 324 324 325 326 326 326 326 326 326 326 325 325 324 326 326 326 326 326 325 325 324
330 332 332 331 332 333 334 334 332 332 331 330 328 327 326 324 323 322 322 322 323 323 323 324 325 325 325 324 325 325 325 325 325 325 325 324 324 325 326 326 325 325 325 326
329 331 331 331 331 330 329 329 328 326 325 324 324 322 321 321 322 322 323 322 323 324 324 324 324 324 324 325 325 324 324 323 323 322 322 322 323 324 325 324 324 323 322 322
328 331 331 330 328 328 327 325 324 324 323 322 320 319 320 321 322 322 323 323 324 324 323 323 323 323 323 324 323 322 323 323 322 321 320 321 321 322 322 323 324 325 323 323
328 329 330 329 327 325 323 321 320 320 320 319 319 320 321 322 322 323 323 323 322 323 323 322 322 321 322 321 320 320 322 321 320 320 321 320 320 321 321 322 323 324 325 324
326 328 329 327 324 322 321 320 320 320 319 320 320 321 321 321 321 321 321 320 320 318 319 319 319 318 318 319 318 318 318 320 320 322 320 319 320 319 321 322 322 323 324 324
327 327 326 324 322 321 321 321 321 321 321 321 321 321 320 320 320 320 319 317 317 316 315 315 316 318 317 318 320 320 320 321 320 320 321 320 320 320 321 321 322 323 323 324
325 326 323 322 322 322 322 321 320 319 319 320 320 319 320 320 320 320 319 318 317 316 316 316 315 318 316 318 319 320 320 321 321 321 320 320 321 321 321 321 321 321 322 324
324 323 322 322 322 323 321 320 320 320 320 320 319 319 319 319 319 319 318 318 318 317 316 315 316 315 316 317 319 320 320 321 320 320 321 320 320 320 320 321 321 320 320 321
322 322 322 322 322 322 321 320 320 320 320 319 319 319 319 319 318 318 318 318 318 317 315 316 313 316 315 315 317 319 320 321 321 320 321 321 321 321 321 321 321 321 321 321
322 321 322 322 321 320 320 319 319 320 319 319 318 318 318 317 317 317 317 318 317 317 315 315 315 315 313 313 313 317 319 319 320 320 320 320 320 320 320 320 320 321 321 321
322 322 321 321 321 319 319 319 319 319 319 318 318 318 317 317 317 316 316 317 316 317 315 314 315 316 314 312 312 313 316 317 318 317 318 317 317 317 316 316 317 318 319 320
319 319 318 321 320 320 319 319 319 318 318 318 317 317 317 316 316 316 314 315 316 314 315 316 315 316 314 311 314 313 313 315 315 314 314 315 315 316 316 315 315 315 317 318
319 319 321 321 320 320 319 318 318 318 318 317 317 317 316 316 315 316 314 314 314 314 314 315 317 314 314 313 313 311 313 314 315 315 316 313 314 315 315 315 315 315 316 317
315 315 320 321 320 319 319 318 318 317 318 317 317 318 317 316 315 314 316 314 313 315 314 316 316 315 313 313 310 309 309 311 313 313 313 312 313 314 314 314 314 315 315 316
320 319 320 320 319 318 318 318 317 317 317 318 317 316 317 316 316 315 315 315 314 313 314 315 315 316 315 314 313 310 309 313 314 313 311 311 312 312 313 313 313 314 314 314
320 319 318 318 318 317 316 316 316 316 315 314 312 312 313 313 313 314 314 314 314 313 313 315 315 316 316 315 314 315 314 314 313 314 311 310 310 311 311 312 313 313 313 313
318 318 318 316 316 316 316 316 314 314 314 312 312 312 313 315 315 314 314 315 314 314 313 314 315 317 317 316 315 313 312 313 312 312 312 311 309 309 309 310 311 311 312 312
Wind_Speed
16 16 8 15 12 16 14 16 16 8 4 18 15 16 16 16 16 17 17 16 16 15 15 14 14 16 16 15 14 14 14 11 9 7 5 4 7 7 6 5 4 5 8 9
15 14 12 15 16 17 19 13 17 13 14 16 18 20 19 18 18 19 18 18 17 17 17 16 15 15 16 15 15 13 14 15 12 11 10 9 7 6 4 3 4 5 5 5
15 17 16 13 15 17 17 16 12 10 11 17 16 15 17 18 17 19 19 18 17 15 14 13 13 12 12 13 11 13 10 10 8 7 9 8 9 10 9 8 8 9 10 11
14 16 20 14 5 9 12 11 3 3 5 13 17 18 16 16 17 18 18 17 14 12 10 8 9 9 8 4 6 9 8 7 4 4 8 9 10 14 17 18 18 18 18 19
14 16 18 22 9 11 10 14 10 8 9 13 17 18 14 14 16 16 15 13 12 9 7 6 5 4 4 4 5 2 10 12 12 14 17 18 18 20 24 27 28 27 26 27
13 18 21 17 13 10 6 12 11 12 14 18 19 12 11 16 17 14 12 10 8 6 4 1 3 4 5 6 8 10 14 19 22 24 25 26 27 27 29 30 32 27 26 33
13 15 18 7 8 1 8 3 7 10 17 19 14 5 27 21 16 12 9 7 5 3 1 2 4 6 9 10 11 13 15 18 21 23 27 27 28 29 30 32 35 36 36 36
11 16 20 8 1 7 6 2 5 10 15 19 13 17 21 18 14 11 7 4 1 2 4 6 8 10 12 13 14 16 18 20 23 25 26 26 31 33 35 35 35 34 32 32
8 6 6 6 5 3 3 4 8 13 17 18 15 16 16 14 11 7 3 2 4 6 8 9 11 13 15 17 18 20 22 25 27 28 29 30 31 32 30 28 28 29 28 28
9 1 5 3 2 3 4 9 9 11 13 14 15 14 11 9 6 2 3 5 7 9 11 12 12 14 16 18 19 20 23 24 26 28 30 31 29 28 28 28 28 29 30 30
11 3 4 3 5 8 12 14 14 13 13 13 12 9 6 4 1 3 5 7 8 11 13 14 15 17 17 19 20 22 24 25 27 28 29 30 30 30 29 29 29 30 30 29
10 8 13 12 10 12 14 14 14 14 13 10 8 6 2 1 3 5 7 10 11 13 15 16 18 19 20 19 20 22 25 25 27 29 30 30 32 33 31 33 34 34 35 37
9 4 10 15 15 14 14 13 12 11 9 7 4 3 0 2 4 7 9 11 13 15 18 19 20 20 20 19 24 26 26 27 28 30 31 31 30 30 35 31 28 31 31 31
7 7 12 19 18 15 14 12 11 8 6 5 3 1 3 5 7 9 11 13 15 16 17 18 19 20 19 23 24 24 26 29 30 30 29 29 29 29 29 30 30 32 26 29
12 14 17 17 16 15 13 11 8 6 4 3 1 2 4 6 7 9 11 12 14 16 17 18 20 20 19 22 24 28 27 27 27 26 27 27 27 28 28 27 28 29 28 30
13 16 18 18 16 14 12 8 6 5 3 1 1 2 4 4 6 8 11 14 15 15 17 20 20 18 21 24 26 27 28 27 27 27 25 24 25 28 28 28 30 28 27 26
18 17 17 18 15 12 7 5 4 3 1 1 1 2 2 4 6 9 12 15 16 18 18 18 21 21 23 24 26 27 27 26 26 26 25 25 25 28 28 31 32 34 34 30
16 17 18 15 12 9 6 5 2 1 2 2 2 1 3 5 8 10 13 14 15 17 18 23 21 23 21 22 24 25 24 25 24 23 23 25 28 29 28 30 31 33 33 32
14 15 13 12 9 7 6 3 2 3 3 3 3 4 5 7 10 13 13 14 14 16 21 18 23 21 22 23 23 23 22 21 21 21 22 23 25 26 27 27 29 30 31 30
14 13 11 9 7 6 4 3 3 3 4 5 5 6 8 10 13 15 16 17 12 13 20 18 19 19 24 26 28 24 22 20 18 19 19 21 22 25 27 29 30 32 31 29
15 10 5 1 3 4 4 3 3 4 4 5 7 9 11 12 13 13 16 17 16 15 20 20 18 19 25 29 24 23 22 20 18 17 18 21 23 24 24 27 28 28 27 27
6 5 3 13 6 5 4 3 3 2 4 6 8 9 10 12 13 13 14 16 15 20 20 20 21 20 30 32 19 22 18 16 18 17 20 20 22 23 23 26 24 22 22 22
7 5 9 8 7 4 5 4 4 4 5 6 8 9 12 13 15 18 19 16 19 20 23 21 21 24 24 21 20 22 16 15 15 17 17 24 23 22 21 21 19 18 17 15
9 12 10 7 7 7 7 5 6 7 8 7 11 10 12 14 13 17 19 21 22 20 24 19 21 18 16 13 19 17 16 13 16 16 17 21 19 19 18 16 15 14 13 14
9 9 8 7 7 8 7 8 7 9 8 11 12 14 13 15 15 17 20 20 21 22 20 21 18 15 15 10 15 17 19 13 14 15 20 20 18 17 15 13 14 12 11 11
7 8 7 8 6 6 8 5 7 7 9 11 13 13 13 14 15 19 21 20 20 19 19 17 18 14 14 15 15 12 13 6 11 12 17 19 17 13 11 11 11 11 13 16
7 7 10 7 9 6 3 4 8 7 8 10 12 11 11 13 16 17 17 14 18 17 20 18 16 14 12 11 14 11 12 9 10 12 9 15 13 13 12 10 9 8 9 9
Wind_Direction
273 289 298 287 216 214 229 272 290 44 140 144 142 134 133 132 128 123 118 116 115 113 107 102 96 92 90 89 93 101 100 100 108 113 95 200 208 218 215 193 218 277 286 280
283 273 260 266 266 271 279 231 261 286 111 114 128 124 138 139 137 129 125 121 118 113 107 99 94 90 89 85 80 69 94 88 64 46 78 62 29 23 40 6 335 315 289 286
252 260 265 235 252 258 259 267 246 260 271 138 132 145 147 147 145 140 134 129 123 115 108 101 97 84 70 73 63 56 25 68 74 35 9 16 354 339 346 339 325 319 313 310
276 280 262 256 79 309 311 271 237 297 124 151 144 149 149 151 148 144 138 133 128 122 112 98 88 95 89 76 87 56 336 329 336 336 323 324 321 320 317 314 310 306 307 307
256 253 259 270 184 221 231 251 187 232 165 158 144 140 141 153 152 152 143 139 131 124 112 99 70 54 30 360 352 336 289 304 313 312 304 305 303 303 304 304 302 301 302 299
261 264 268 285 56 34 345 253 164 203 174 154 162 175 155 159 158 151 151 145 139 134 127 97 16 6 343 337 318 306 298 304 306 305 303 302 301 301 297 294 292 294 287 288
241 249 262 46 81 139 253 351 117 196 168 165 184 333 155 164 162 162 154 144 129 122 97 340 329 319 313 305 301 299 302 299 300 300 300 302 302 299 295 291 291 290 288 287
251 262 254 36 198 283 24 35 151 157 165 168 137 131 145 154 158 160 157 153 145 315 310 312 312 312 307 304 304 304 303 300 299 299 299 296 294 294 291 288 289 290 291 291
325 2 12 345 341 1 316 155 147 153 160 149 152 151 148 151 156 160 175 246 303 307 307 311 312 312 309 307 307 306 303 302 302 300 298 296 294 292 288 284 282 280 278 280
292 246 357 315 238 159 174 143 138 142 143 155 153 153 154 153 158 192 286 304 306 305 304 304 305 302 302 305 305 304 301 299 298 295 295 293 290 284 282 278 277 276 275 275
259 252 278 243 152 136 132 134 133 135 141 142 145 147 154 162 229 286 297 304 303 304 302 300 303 303 303 302 302 302 301 300 299 297 294 291 286 282 279 277 274 276 274 274
263 321 207 153 157 150 145 142 139 135 132 133 143 147 150 212 294 305 304 306 308 304 301 299 298 299 300 300 300 301 302 303 302 300 293 287 285 288 281 283 281 279 275 271
294 177 206 159 163 160 153 148 146 141 140 136 123 124 66 316 312 311 318 310 307 303 302 302 302 301 298 302 294 291 297 299 299 299 294 287 289 289 288 283 286 289 281 278
254 224 157 166 163 158 153 143 137 131 121 118 116 42 348 331 323 320 315 311 309 306 301 302 300 297 302 296 293 294 297 296 296 298 294 288 286 287 284 284 290 286 288 289
237 197 174 166 156 154 153 149 142 137 131 125 71 1 336 331 329 331 330 325 314 315 315 306 303 304 308 301 301 304 301 296 294 293 293 287 285 285 282 284 283 282 285 281
192 193 162 157 165 162 155 153 159 147 148 159 306 332 341 351 357 352 350 347 339 326 323 319 318 316 310 312 314 311 306 300 291 283 286 291 286 284 281 280 282 284 285 283
192 161 157 167 166 162 158 133 130 139 183 249 283 327 349 342 339 341 346 343 348 343 332 329 324 317 313 317 324 317 312 313 310 305 277 278 283 278 283 282 283 285 283 282
188 176 173 171 168 157 144 139 140 174 234 232 257 288 318 329 331 330 329 335 341 343 346 329 326 328 322 320 321 320 312 311 312 307 303 290 285 289 289 292 292 292 292 290
174 175 169 163 163 152 146 167 201 218 234 246 258 276 302 319 323 324 321 327 329 335 340 342 342 348 341 340 328 318 318 309 308 308 303 300 301 302 301 298 297 295 294 292
159 151 159 160 143 141 152 167 201 233 245 248 260 282 296 308 315 315 315 312 310 317 328 333 344 342 341 338 343 331 316 313 315 311 310 307 303 299 298 295 292 291 290 288
115 111 124 239 157 154 168 194 212 232 240 262 273 282 295 305 311 316 315 311 315 306 320 328 323 320 339 333 333 334 330 318 315 315 316 314 315 315 314 311 305 300 297 287
263 266 226 234 205 199 202 194 206 250 276 282 286 291 298 303 307 308 317 306 318 320 311 310 313 307 319 331 329 326 331 338 338 330 328 328 326 323 317 316 313 309 303 292
158 199 216 212 212 213 211 214 245 255 287 304 302 303 303 306 306 310 313 321 320 310 318 308 304 310 325 336 324 327 324 329 328 331 328 331 327 327 325 327 324 324 322 316
208 224 238 228 218 222 224 245 263 267 261 284 277 272 297 303 302 306 311 318 319 315 320 316 311 312 324 323 345 350 352 353 346 334 333 328 331 336 338 343 339 340 340 337
201 214 229 223 213 220 225 248 248 264 279 276 290 284 283 284 284 311 313 312 315 319 312 316 314 315 316 294 317 341 341 342 342 346 346 352 347 352 356 359 6 5 13 7
186 201 199 202 219 211 237 250 276 296 308 310 322 321 314 316 311 311 311 309 317 320 320 313 320 322 318 316 316 314 327 301 334 329 351 355 359 4 12 23 33 39 46 50
179 190 185 209 208 230 249 274 290 293 308 322 323 321 317 322 323 323 318 315 317 320 316 317 313 305 305 311 329 330 338 326 338 345 339 342 349 8 17 27 30 32 40 51